[[{"header":{"parameterUnit":"m.s-1","parameterCategory":1,"la1":30.2991,"la2":30.254,"lo1":-89.0895,"lo2":-89.0444,"dy":0.0017,"dx":0.0017,"nx":28,"ny":28,"refTime":"2025-02-23T03:00:00:Z","depth":0,"parameterNumber":2,"parameterNumberName":"U-component_of_WINDS"},"data":[0,0,0,0,0,0,0,0,0,0,0,0,0,0,0,0,0,0,0,0,0,0,0,0,0,0,0,0,0,0,0,0,0,0,0,0,0,0,0,0,0,0,0,0,0,0,0,0,0,0,0,0,0,0,0,0,0,0,-1.0377,-1.0377,0,-1.0343,-1.0343,-1.0343,-1.0282,-1.0281,-1.028,-1.0279,-1.0246,-1.0246,-1.0246,0,0,0,0,0,0,0,0,0,0,0,0,0,-1.0389,-1.0389,-1.0377,-1.0377,-1.0376,-1.0343,-1.0343,-1.0343,-1.0282,-1.0281,-1.0279,-1.0278,-1.0246,-1.0246,-1.0246,0,0,0,0,0,0,0,0,0,0,0,0,0,-1.0372,-1.0389,-1.0377,-1.0342,-1.0339,-1.0344,-1.0343,-1.0342,-1.0283,-1.0281,-1.0279,-1.0277,-1.0246,-1.0246,-1.0247,-1.0283,0,0,-1.0247,-1.0248,0,0,0,0,0,0,0,0,-1.0373,-1.0372,-1.0348,-1.0344,-1.0341,-1.0315,-1.0335,-1.0323,-1.0283,-1.0304,-1.0279,-1.0277,-1.0271,-1.0269,-1.0266,-1.0282,-1.0281,-1.0248,-1.0248,-1.0248,-1.0248,0,0,0,0,0,0,0,-1.0375,-1.0373,-1.0364,-1.0347,-1.0343,-1.0328,-1.0324,-1.0332,-1.0298,-1.0302,-1.0297,-1.0294,-1.0268,-1.0266,-1.0265,-1.028,-1.0248,-1.0248,-1.0248,-1.0248,-1.0323,-1.0324,0,0,0,0,0,0,-1.0381,-1.0374,-1.0365,-1.0363,-1.0353,-1.0329,-1.0324,-1.0325,-1.0297,-1.0291,-1.0296,-1.0292,-1.0266,-1.0265,-1.0264,-1.0305,-1.0248,-1.0248,-1.0248,-1.0321,-1.0323,-1.0325,0,0,0,0,0,0,-1.0381,-1.038,-1.0366,-1.0367,-1.0364,-1.0331,-1.0332,-1.0325,-1.0323,-1.0292,-1.0286,-1.03,-1.0265,-1.0263,-1.0278,-1.0303,-1.0248,-1.0249,-1.0319,-1.0321,-1.0324,-1.0387,0,0,0,0,0,0,-1.0382,-1.0381,-1.0395,-1.0368,-1.0364,-1.0382,-1.0334,-1.0326,-1.0324,-1.0318,-1.0295,-1.0289,-1.0264,-1.0278,-1.0279,-1.0302,-1.0249,-1.0316,-1.032,-1.0323,-1.0383,-1.0392,-1.0399,0,0,0,0,0,-1.0382,-1.0415,-1.0396,-1.0395,-1.0381,-1.0383,-1.0381,-1.0351,-1.0326,-1.034,-1.0319,-1.029,-1.0299,-1.028,-1.028,-1.0304,-1.0315,-1.0319,-1.0323,-1.0379,-1.039,-1.0399,0,0,0,0,0,0,-1.0447,-1.0411,-1.039,-1.0414,-1.0402,-1.0373,-1.039,-1.0363,-1.0359,-1.0353,-1.0315,-1.0311,-1.0331,-1.0319,-1.0298,-1.0338,-1.0302,-1.0307,-1.0345,-1.0355,-1.0363,-1.0367,-1.0249,0,0,0,0,0,-1.0463,-1.0468,-1.0436,-1.0461,-1.0456,-1.0424,-1.0424,-1.0401,-1.0387,-1.0382,-1.0363,-1.0351,-1.0351,-1.0352,-1.0351,-1.038,-1.0374,-1.0396,-1.0404,-1.0411,-1.0416,-1.043,-1.0439,-1.0338,-1.0338,-1.0338,0,0,-1.0499,-1.048,-1.0485,-1.0474,-1.0462,-1.0467,-1.042,-1.0429,-1.0432,-1.0383,-1.0397,-1.0382,-1.0366,-1.0388,-1.0397,-1.0379,-1.0442,-1.0416,-1.0422,-1.0423,-1.0435,-1.0445,-1.0453,-1.0341,-1.034,-1.034,0,0,-1.0566,-1.0552,-1.0571,-1.0559,-1.0541,-1.0519,-1.0523,-1.0498,-1.0486,-1.0498,-1.0461,-1.0465,-1.0466,-1.0456,-1.0451,-1.0512,-1.0484,-1.0512,-1.0556,-1.057,-1.0578,-1.0585,-1.0606,-1.0615,-1.0516,-1.0516,-1.0517,0,-1.0613,-1.062,-1.0584,-1.0594,-1.059,-1.0544,-1.0563,-1.0553,-1.0536,-1.0534,-1.0513,-1.0512,-1.0498,-1.0517,-1.0532,-1.0529,-1.0533,-1.0516,-1.0579,-1.0586,-1.0592,-1.0612,-1.062,-1.052,-1.052,-1.0519,-1.0519,0,-1.0678,-1.0683,-1.07,-1.0683,-1.0681,-1.0695,-1.0661,-1.0663,-1.0639,-1.0619,-1.0631,-1.0613,-1.0606,-1.0608,-1.0586,-1.0624,-1.0613,-1.0586,-1.055,-1.0606,-1.0624,-1.0632,-1.0525,-1.0524,-1.0523,-1.0522,0,0,-1.0788,-1.0749,-1.0756,-1.0747,-1.0723,-1.0726,-1.0737,-1.073,-1.0732,-1.072,-1.0729,-1.073,-1.0704,-1.0699,-1.0674,-1.0686,-1.0735,-1.0658,-1.0657,-1.0674,-1.0775,-1.0797,-1.0806,-1.0716,-1.0717,-1.0718,-1.0777,0,-1.0851,-1.0869,-1.0836,-1.0861,-1.0865,-1.082,-1.083,-1.0816,-1.0796,-1.0797,-1.0775,-1.0777,-1.0743,-1.0739,-1.0749,-1.0727,-1.0755,-1.0722,-1.0724,-1.0725,-1.0731,-1.0816,-1.0839,-1.0895,-1.0784,-1.0785,-1.0786,0,-1.0928,-1.0919,-1.0945,-1.0917,-1.0917,-1.0927,-1.0916,-1.0917,-1.0899,-1.0884,-1.0877,-1.0847,-1.0856,-1.082,-1.0831,-1.081,-1.0808,-1.0797,-1.0799,-1.0799,-1.076,-1.0819,-1.0912,-1.0921,-1.0797,-1.0796,-1.0795,0,-1.1006,-1.1001,-1.1015,-1.1009,-1.0976,-1.0984,-1.0971,-1.0951,-1.0948,-1.0939,-1.0936,-1.0928,-1.0925,-1.0919,-1.0888,-1.0864,-1.0903,-1.0864,-1.0891,-1.0892,-1.0903,-1.0903,-1.0998,-1.09,-1.09,-1.09,-1.09,0,-1.1081,-1.1099,-1.105,-1.1059,-1.1077,-1.1038,-1.1056,-1.1039,-1.1021,-1.1026,-1.0986,-1.0991,-1.0949,-1.0949,-1.0924,-1.0938,-1.0936,-1.0924,-1.0918,-1.0929,-1.093,-1.0929,-1.0924,-1.0902,-1.0901,-1.0901,-1.0901,0,-1.1173,-1.1141,-1.1153,-1.1121,-1.1113,-1.1127,-1.1099,-1.1106,-1.1083,-1.1089,-1.1088,-1.1053,-1.1051,-1.1018,-1.101,-1.0993,-1.1017,-1.1002,-1.1023,-1.1019,-1.1048,-1.1046,-1.1146,-1.1157,-1.1051,-1.1052,-1.1053,0,-1.1224,-1.1236,-1.1204,-1.1204,-1.1192,-1.1192,-1.1189,-1.115,-1.1147,-1.1127,-1.1136,-1.113,-1.1124,-1.1123,-1.1097,-1.1089,-1.1075,-1.111,-1.1074,-1.1084,-1.1077,-1.1077,-1.1078,-1.1119,-1.1121,-1.1122,-1.1122,0,-1.1318,-1.13,-1.1296,-1.1286,-1.1282,-1.1272,-1.126,-1.1262,-1.1219,-1.1218,-1.1215,-1.121,-1.12,-1.1195,-1.1183,-1.1169,-1.1139,-1.1134,-1.114,-1.1152,-1.1163,-1.1158,-1.1045,-1.1132,-1.1131,-1.113,-1.113,-1.113,-1.1391,-1.1399,-1.1378,-1.1374,-1.136,-1.1349,-1.1353,-1.133,-1.1326,-1.1315,-1.1292,-1.1292,-1.1272,-1.1252,-1.124,-1.124,-1.1222,-1.1231,-1.1233,-1.1236,-1.1242,-1.1162,-1.1237,-1.1237,-1.1237,-1.1237,-1.1236,0,-1.1483,-1.1466,-1.1463,-1.1446,-1.1443,-1.1412,-1.1397,-1.1396,-1.1397,-1.138,-1.1374,-1.137,-1.1364,-1.1336,-1.1327,-1.1332,-1.1318,-1.1331,-1.1331,-1.1329,-1.1258,-1.1255,-1.1343,-1.1343,-1.1343,-1.1343,-1.1343,-1.1343,-1.1531,-1.1543,-1.1523,-1.1528,-1.151,-1.151,-1.1503,-1.1493,-1.1479,-1.1476,-1.147,-1.1451,-1.143,-1.1419,-1.1412,-1.1404,-1.1403,-1.1421,-1.1408,-1.1344,-1.1334,-1.1324,-1.132,-1.1421,-1.1421,-1.1479,-1.1479,-1.148]},{"header":{"parameterUnit":"m.s-1","parameterCategory":1,"la1":30.2991,"la2":30.254,"lo1":-89.0895,"lo2":-89.0444,"dy":0.0017,"dx":0.0017,"nx":28,"ny":28,"refTime":"2025-02-23T03:00:00:Z","depth":0,"parameterNumber":3,"parameterNumberName":"V-component_of_WINDS"},"data":[0,0,0,0,0,0,0,0,0,0,0,0,0,0,0,0,0,0,0,0,0,0,0,0,0,0,0,0,0,0,0,0,0,0,0,0,0,0,0,0,0,0,0,0,0,0,0,0,0,0,0,0,0,0,0,0,0,0,-1.1897,-1.1898,0,-1.1989,-1.199,-1.1991,-1.2044,-1.2045,-1.2045,-1.2045,-1.2135,-1.2137,-1.2139,0,0,0,0,0,0,0,0,0,0,0,0,0,-1.1765,-1.1767,-1.1897,-1.1898,-1.19,-1.1989,-1.199,-1.1991,-1.2044,-1.2045,-1.2045,-1.2045,-1.2134,-1.2137,-1.214,0,0,0,0,0,0,0,0,0,0,0,0,0,-1.1836,-1.1768,-1.1897,-1.1937,-1.1941,-1.1988,-1.199,-1.1991,-1.2044,-1.2045,-1.2045,-1.2045,-1.2134,-1.2137,-1.214,-1.2153,0,0,-1.215,-1.2151,0,0,0,0,0,0,0,0,-1.1832,-1.1841,-1.193,-1.1934,-1.1939,-1.2006,-1.1976,-1.2045,-1.2044,-1.2005,-1.2045,-1.2045,-1.2091,-1.2098,-1.2114,-1.2157,-1.2161,-1.215,-1.2152,-1.2154,-1.2154,0,0,0,0,0,0,0,-1.1827,-1.1837,-1.1933,-1.1931,-1.1937,-1.1949,-1.1959,-1.199,-1.2045,-1.2009,-1.2013,-1.2023,-1.2094,-1.2111,-1.2117,-1.2162,-1.215,-1.2153,-1.2155,-1.2156,-1.222,-1.2219,0,0,0,0,0,0,-1.1816,-1.1833,-1.193,-1.1936,-1.1885,-1.1951,-1.1963,-1.1984,-1.2045,-1.2055,-1.2023,-1.2025,-1.2105,-1.2113,-1.212,-1.2139,-1.2154,-1.2157,-1.2158,-1.222,-1.222,-1.2219,0,0,0,0,0,0,-1.1813,-1.1824,-1.1927,-1.1886,-1.1899,-1.1953,-1.1976,-1.1986,-1.2003,-1.2056,-1.2065,-1.203,-1.2106,-1.2116,-1.2145,-1.2143,-1.2158,-1.2161,-1.222,-1.222,-1.222,-1.2178,0,0,0,0,0,0,-1.1809,-1.1823,-1.1829,-1.1885,-1.1901,-1.195,-1.1976,-1.1987,-1.2009,-1.2013,-1.2065,-1.2074,-1.2107,-1.2139,-1.2148,-1.2148,-1.2164,-1.2221,-1.222,-1.222,-1.2179,-1.2176,-1.2173,0,0,0,0,0,-1.1804,-1.1813,-1.1829,-1.1841,-1.1911,-1.195,-1.1959,-1.1998,-1.2008,-1.2015,-1.2048,-1.2073,-1.2142,-1.2142,-1.2152,-1.2153,-1.2221,-1.222,-1.222,-1.2181,-1.2176,-1.2173,0,0,0,0,0,0,-1.1755,-1.1821,-1.184,-1.1868,-1.1903,-1.1959,-1.1969,-1.1992,-1.2025,-1.2027,-1.2072,-1.2084,-1.2108,-1.2133,-1.2132,-1.2168,-1.2184,-1.2185,-1.2151,-1.2147,-1.2144,-1.2137,-1.2166,0,0,0,0,0,-1.1747,-1.1775,-1.1831,-1.185,-1.1867,-1.1915,-1.1933,-1.196,-1.1998,-1.2013,-1.2049,-1.2083,-1.2113,-1.2132,-1.2162,-1.2183,-1.2195,-1.2189,-1.2185,-1.2182,-1.2183,-1.2195,-1.2193,-1.2217,-1.2217,-1.2217,0,0,-1.1732,-1.1771,-1.1786,-1.1841,-1.1872,-1.1898,-1.1927,-1.1954,-1.1973,-1.2016,-1.2046,-1.2073,-1.2115,-1.214,-1.2153,-1.2162,-1.2179,-1.2182,-1.2179,-1.2181,-1.2194,-1.2192,-1.219,-1.2217,-1.2217,-1.2217,0,0,-1.1717,-1.175,-1.177,-1.18,-1.1846,-1.1877,-1.1882,-1.1935,-1.1955,-1.1985,-1.2018,-1.2041,-1.2092,-1.212,-1.2141,-1.2136,-1.2159,-1.2145,-1.2127,-1.2139,-1.2137,-1.2135,-1.2133,-1.2131,-1.2145,-1.2145,-1.2145,0,-1.1691,-1.1734,-1.1776,-1.1801,-1.1824,-1.1865,-1.1884,-1.1911,-1.1964,-1.1978,-1.1988,-1.2052,-1.2083,-1.2115,-1.2114,-1.2129,-1.2135,-1.2139,-1.2134,-1.2133,-1.2132,-1.213,-1.2129,-1.2143,-1.2143,-1.2143,-1.2144,0,-1.17,-1.1728,-1.1738,-1.179,-1.1814,-1.1835,-1.188,-1.1899,-1.1923,-1.1953,-1.1983,-1.2022,-1.206,-1.207,-1.2093,-1.2104,-1.2109,-1.2126,-1.2142,-1.2127,-1.2126,-1.2125,-1.214,-1.2141,-1.2141,-1.2142,0,0,-1.1656,-1.1731,-1.1734,-1.1757,-1.1811,-1.1833,-1.1856,-1.1895,-1.191,-1.1945,-1.1965,-1.2006,-1.2022,-1.2046,-1.2073,-1.2083,-1.2076,-1.2099,-1.21,-1.2092,-1.2089,-1.2076,-1.2074,-1.2091,-1.2091,-1.2092,-1.2085,0,-1.1649,-1.1694,-1.1733,-1.1763,-1.1789,-1.1828,-1.1848,-1.1883,-1.1911,-1.1936,-1.1967,-1.1996,-1.2015,-1.203,-1.2041,-1.2074,-1.2075,-1.2075,-1.2109,-1.211,-1.2097,-1.2074,-1.206,-1.2052,-1.2085,-1.2085,-1.2085,0,-1.1647,-1.1681,-1.1714,-1.1765,-1.1777,-1.1795,-1.1833,-1.1857,-1.1896,-1.1916,-1.1942,-1.1971,-1.1996,-1.201,-1.2044,-1.2043,-1.2059,-1.2077,-1.2077,-1.2081,-1.2096,-1.2077,-1.2051,-1.205,-1.2085,-1.2085,-1.2085,0,-1.1611,-1.1665,-1.1692,-1.1711,-1.1771,-1.1782,-1.1807,-1.1847,-1.1867,-1.19,-1.1914,-1.1949,-1.1968,-1.1993,-1.203,-1.2037,-1.206,-1.2077,-1.2076,-1.2075,-1.2079,-1.2078,-1.2054,-1.209,-1.209,-1.209,-1.209,0,-1.1598,-1.1617,-1.1677,-1.1693,-1.1714,-1.1758,-1.1777,-1.1806,-1.1841,-1.1862,-1.1898,-1.1917,-1.1965,-1.1989,-1.2018,-1.2041,-1.2049,-1.2065,-1.2073,-1.2062,-1.206,-1.2073,-1.2074,-1.209,-1.209,-1.209,-1.209,0,-1.1562,-1.1603,-1.1635,-1.1689,-1.1703,-1.1716,-1.1762,-1.1778,-1.1809,-1.1836,-1.1844,-1.1891,-1.1922,-1.1961,-1.2004,-1.2023,-1.2043,-1.2055,-1.203,-1.2034,-1.203,-1.203,-1.2014,-1.2014,-1.2049,-1.2049,-1.2049,0,-1.1551,-1.1566,-1.1622,-1.164,-1.1664,-1.1692,-1.1713,-1.1756,-1.1777,-1.1822,-1.1833,-1.1866,-1.1896,-1.1942,-1.198,-1.2012,-1.2024,-1.2017,-1.2029,-1.2018,-1.2023,-1.2022,-1.2023,-1.2013,-1.2012,-1.2012,-1.2012,0,-1.1527,-1.1546,-1.1577,-1.1614,-1.1638,-1.1669,-1.1702,-1.1714,-1.1763,-1.1784,-1.1816,-1.1839,-1.1883,-1.1915,-1.1952,-1.1977,-1.2002,-1.2007,-1.2009,-1.1998,-1.1982,-1.199,-1.202,-1.2007,-1.2008,-1.2008,-1.2008,-1.2009,-1.1503,-1.1518,-1.1559,-1.1591,-1.1621,-1.165,-1.1668,-1.1701,-1.1729,-1.1769,-1.1792,-1.1823,-1.1861,-1.1914,-1.1938,-1.1962,-1.1971,-1.1973,-1.1974,-1.1973,-1.1969,-1.1979,-1.1969,-1.1969,-1.1969,-1.1969,-1.1969,0,-1.148,-1.1508,-1.1538,-1.1582,-1.1607,-1.163,-1.1667,-1.1685,-1.1713,-1.1747,-1.1775,-1.1811,-1.1843,-1.1882,-1.1916,-1.1928,-1.194,-1.1935,-1.1934,-1.1939,-1.1959,-1.1955,-1.1925,-1.1925,-1.1925,-1.1925,-1.1925,-1.1925,-1.1471,-1.1497,-1.1522,-1.1562,-1.1591,-1.1623,-1.1642,-1.1668,-1.1695,-1.1735,-1.1762,-1.1788,-1.1824,-1.186,-1.189,-1.1901,-1.1911,-1.1902,-1.1916,-1.1934,-1.1938,-1.1942,-1.1938,-1.1904,-1.1904,-1.1894,-1.1894,-1.1894]}]]